User: anonymous   Login
Location: Fairmont
(43.6520°N, 94.4610°W)
Time: 05:50:47
(UTC-06:00)
Language:

Cosmos-2242 - Orbit

View from above orbital plane
View from above orbital plane
View from above satellite
View from above satellite

Ground track
Ground track

The orbit data is extracted from the following two-line orbital elements,

1 22626U 93024A   16345.26016590  .00000351  00000-0  35843-4 0  9990
2 22626  82.5227 219.9083 0019967  31.7318 328.5098 14.87577839278060
Epoch (UTC): 10 December 2016 06:14:38
Eccentricity: 0.0019967
inclination: 82.5227°
perigee height: 591 km
apogee height: 619 km
right ascension of ascending node: 219.9083°
argument of perigee: 31.7318°
revolutions per day: 14.87577839
mean anomaly at epoch: 328.5098°
orbit number at epoch: 27806

The dashed part of the orbit path shows where the satellite is in the earth's shadow,  

DLR